HERMES-3 (63835 NORAD) Tracking and Keplerian Element Data

This shows tracking and keplerian element data for the satellite.

Feedback or suggestion? Click here.




ElementValue
Catalog63835
NameHERMES-3
Epoch Orbit4263
Epoch Day353.85330602
Epoch Year2025
RAAN245.0248
Inclination97.4084
Eccentricity0.0008488
Argument of Perigee56.9492
Mean Anonmoly303.2561
Mean Motion15.26161934
Decay Rate0.00013715
L11 63835U 25052BR 25353.85330602 .00013715 00000+0 53262-3 0 9991
L22 63835 97.4084 245.0248 0008488 56.9492 303.2561 15.26161934 42630



Live tracking and technical data element details for HERMES-3 (NORAD 63835). HERMES-3 can be tracked NOW for your location showing map with azimuth and elevation plus other details from your city location.







IsCatalogInMostPopularTable: catalog: 63835, numindb: 2
Update: records affected: 1



GetName: 63835 HERMES-3

Hit Count: updated at: Wed, 15 Apr 2026 01:37:35 GMT